User: anonymous   Login
Location: Ash Swamp
(41.5170°N, 74.6157°W)
Time: 08:32:59
(UTC+00:00)
Language:

Cosmos 1758 Rocket - Orbit

View from above orbital plane
View from above orbital plane
View from above satellite
View from above satellite

Ground track
Ground track

The orbit data is extracted from the following two-line orbital elements,

1 16792U 86046B   20265.87153181 +.00000068 +00000-0 +54297-5 0  9994
2 16792 082.4848 160.0464 0023428 329.0414 084.9520 14.83251462830582
Epoch (UTC): 21 September 2020 20:55:00
Eccentricity: 0.0023428
inclination: 82.4848°
perigee height: 602 km
apogee height: 635 km
right ascension of ascending node: 160.0464°
argument of perigee: 329.0414°
revolutions per day: 14.83251462
mean anomaly at epoch: 84.9520°
orbit number at epoch: 83058

The dashed part of the orbit path shows where the satellite is in the earth's shadow,  

DLR